Showing default

FLOCK 4BE 18, 60480

Orbit data source: Space-Track

FLOCK 4BE 18, 60480 is a payload satellite owned by Planet (US) in SSO that was launched on Fri, 16 Aug 2024 UTC via an FALCON 9 launch vehicle from the Air Force Western Test Range (AFWTR). Payload-class satellites include a variety of spacecraft equipped with specific instruments for various scientific and technological missions. These include communications satellites like Starlink; space stations such as the ISS; scientific satellites like the Hubble; Earth observation satellites from companies like Planet Labs, Umbra, and HawkEye 360; GPS; miniature CubeSats for education and research; and military/defense satellites.

Loading next visibility...
Identifier
60480, 2024-149N
Orbit
SSO
Country
Flag of USUS
Related business
Manufacturer
Planet
Mission
Operational Commercial Imaging
Bus & Motor
CUBESAT 3U, Unknown motor
Mass
5.7 kg wet, 5.7 kg dry
Launch date (UTC)
2024-08-16 (1 year ago)
Launch vehicle
FALCON 9
Launch site
Air Force Western Test Range (AFWTR)
Object type
Payload
Rocket body
Debris
Shape & HBR
Box + 2 Pan, 1.0 m
Radar Cross Section
0.072 m², Medium (>0.1 m² and < 1m²)

Expand to show TLE details & history
Last TLE update: 10 hours ago

TLE from 10 hours ago
0 FLOCK 4BE 18
1 60480U 24149N   26036.20221371  .00030075  00000-0  83445-3 0  9995
2 60480  97.3827 118.9726 0004360  22.7748 337.3689 15.36860389 82001
Epoch: 2026-02-05T04:51Z
TLE epoch observation values (Epoch: 2026-02-05T04:51:11.264Z)
Latitude
-0.00002°
Longitude
-89.18216°
Altitude
455.764 km
Speed
7.641 km/s
True Right ascension
07h 55m 53s
True Declination
0° 00' 00"
Sunlit
Object was in full shadow at epoch
Visualization orbit readout
Latitude
Unknown
Longitude
Unknown
Altitude
Unknown
Speed
Unknown
Apparent Right ascension
Unknown
Apparent Declination
Unknown
Sunlit
N/A
Visualization observer readout
Local Sidereal Time
16:57:07
Azimuth
Unknown
Elevation
Unknown
Doppler factor
Unknown
Orbital elements
Apogee altitude
455.321 km
Perigee altitude
449.364 km
Semi-major axis
6,830.48 km
Eccentricity
0.00044
Inclination
97.3827°
RAAN
118.9726°
Arg. of periapsis
22.7748°
True anomaly
337.34967°
Mean anomaly
337.3689°
Eccentric anomaly
337.35928°
Mean motion
3.84473 °/min
Orbital period
93.63 mins
BSTAR
0.00083445
Loading maneuver chart data...
Computing Atmospheric mass density...
Loading historical data...
Loading historical data...
Loading historical data...
Loading historical data...
Loading historical data...
Loading historical data...
Loading historical data...

Documentation

Showing up to 5 results
|